Location: Marsån
(66.4167°N, 22.2833°E)
Time: 10:04:26
(UTC+00:00)

SL-16 R/B - Pass Details

Date: 24 February 2024
Orbit: 842 x 845 km, 71.0° (Epoch: 15 April)

Event Time Altitude Azimuth Distance (km) Brightness Sun altitude
Rises 17:50:22 0° 313° (NW) 3,416 6.4 -15.2°
Reaches altitude 10° 17:52:54 10° 308° (NW) 2,479 5.7 -15.5°
Maximum altitude 17:58:17 46° 237° (WSW) 1,131 3.2 -16.0°
Drops below altitude 10° 18:03:39 10° 166° (SSE) 2,469 4.3 -16.5°
Enters shadow 18:04:53 - 163° (SSE) 2,920 4.7 -16.7°
